Hamilton Island, Australia

8:02 PM AEST on September 20, 2017 (GMT +1000)
Hamilton Island

Weather History for YBHM - June, 2013

Change the Weather History Date:

Wednesday, June 5, 2013

  Actual Average Record
Temperature  
Mean Temperature 69 °F -  
Max Temperature 72 °F - - ()
Min Temperature 66 °F - - ()
Cooling Degree Days 4    
Growing Degree Days 19 (Base 50)    
Moisture  
Dew Point 67 °F    
Average Humidity 90    
Maximum Humidity 100    
Minimum Humidity 79    
Precipitation  
Precipitation 0.03 in - - ()
Sea Level Pressure  
Sea Level Pressure 30.12 in    
Wind  
Wind Speed 22 mph ()    
Max Wind Speed 28 mph    
Max Gust Speed 37 mph    
T = Trace of Precipitation, MM = Missing Value Source: Averaged Metar Reports

Daily Weather History Graph

Daily Weather History Graph

Search for Another Location

Airport or City:

Trip Planner

Search our weather history database for the weather conditions in past years. The results will help you decide how hot, cold, wet, or windy it might be!

Date:

Astronomy

Jun. 05, 2013 Rise Set
Actual Time 6:34 AM AEST 5:31 PM AEST
Civil Twilight 6:10 AM AEST 5:55 PM AEST
Nautical Twilight 5:42 AM AEST 6:22 PM AEST
Astronomical Twilight 5:15 AM AEST 6:49 PM AEST
Moon 3:23 AM AEST (6/5) 3:02 PM AEST (6/5)
Length of Visible Light 11h 44m
Length of Day
10h 56m
Waning Crescent, 11% of the Moon is Illuminated
Jun 5
Waning Crescent
Jun 9
New
Jun 17
First Quarter
Jun 23
Full
Jun 30
Last Quarter

Hourly Weather History & Observations

Time (AEST) Temp. Dew Point Humidity Pressure Visibility Wind Dir Wind Speed Gust Speed Precip Events Conditions
12:00 AM 69 °F 65 °F 83% 30.12 in - SE 27.6 mph - -  
12:00 AM 69.8 °F 64.4 °F 83% 30.12 in - SE 27.6 mph - N/A   Unknown
12:30 AM 69.8 °F 64.4 °F 83% 30.12 in - SE 26.5 mph - N/A   Unknown
1:00 AM 69.8 °F 66.2 °F 88% 30.12 in - SE 24.2 mph - N/A   Unknown
1:30 AM 69.8 °F 66.2 °F 88% 30.12 in - SE 24.2 mph - N/A   Unknown
2:00 AM 69.8 °F 66.2 °F 88% 30.09 in - SE 21.9 mph - N/A   Unknown
2:30 AM 69.8 °F 66.2 °F 88% 30.09 in - SE 24.2 mph - N/A   Unknown
3:00 AM 70 °F 65 °F 80% 30.11 in - SE 23.0 mph - -  
3:00 AM 69.8 °F 64.4 °F 83% 30.09 in - SE 23.0 mph - N/A   Unknown
3:30 AM 66.2 °F 64.4 °F 94% 30.12 in - SSE 23.0 mph - N/A   Unknown
4:00 AM 66.2 °F 64.4 °F 94% 30.09 in - SSE 21.9 mph - N/A   Unknown
4:30 AM 68.0 °F 66.2 °F 94% 30.12 in - SSE 23.0 mph - N/A   Unknown
5:00 AM 68.0 °F 66.2 °F 94% 30.12 in - SE 20.7 mph - N/A   Unknown
5:30 AM 68.0 °F 66.2 °F 94% 30.12 in - SSE 20.7 mph - N/A   Unknown
6:00 AM 68.0 °F 66.2 °F 94% 30.12 in - SSE 23.0 mph - N/A   Unknown
6:30 AM 66.2 °F 66.2 °F 100% 30.12 in - SSE 23.0 mph - N/A   Unknown
7:00 AM - - N/A% 30.15 in - SSE 24.2 mph - N/A   Unknown
7:30 AM 68.0 °F 68.0 °F 100% 30.15 in - SSE 23.0 mph - N/A   Unknown
8:00 AM 68.0 °F 68.0 °F 100% 30.15 in - SSE 26.5 mph - N/A   Unknown
8:30 AM 68.0 °F 68.0 °F 100% 30.15 in - SSE 27.6 mph - N/A   Unknown
9:00 AM 68 °F 67 °F 97% 30.17 in - SSE 24.2 mph - -  
9:00 AM 68.0 °F 68.0 °F 100% 30.15 in - SSE 24.2 mph - N/A   Unknown
9:30 AM 68.0 °F 68.0 °F 100% 30.18 in - SSE 21.9 mph - N/A   Unknown
10:00 AM 69.8 °F 66.2 °F 88% 30.18 in - SSE 23.0 mph - N/A   Unknown
10:30 AM 69.8 °F 68.0 °F 94% 30.15 in - SSE 24.2 mph - N/A   Unknown
11:00 AM 69.8 °F 68.0 °F 94% 30.15 in - SSE 21.9 mph - N/A   Unknown
11:30 AM 68.0 °F 68.0 °F 100% 30.15 in - SE 20.7 mph - N/A   Unknown
12:00 PM 69 °F 69 °F 100% 30.15 in - SSE 18.4 mph - -  
12:00 PM 69.8 °F 69.8 °F 100% 30.15 in - SSE 18.4 mph - N/A   Unknown
12:30 PM 69.8 °F 68.0 °F 94% 30.12 in - SSE 20.7 mph - N/A   Unknown
1:00 PM 69.8 °F 68.0 °F 94% 30.12 in - SSE 20.7 mph - N/A   Unknown
1:30 PM 69.8 °F 68.0 °F 94% 30.12 in - SSE 20.7 mph - N/A   Unknown
2:00 PM 71.6 °F 68.0 °F 88% 30.09 in - SSE 23.0 mph - N/A   Unknown
2:30 PM 69.8 °F 68.0 °F 94% 30.09 in - SSE 24.2 mph - N/A   Unknown
3:00 PM 71 °F 68 °F 87% 30.10 in - SE 20.7 mph - -  
3:00 PM 71.6 °F 68.0 °F 88% 30.09 in - SE 20.7 mph - N/A   Unknown
3:30 PM 69.8 °F 68.0 °F 94% 30.09 in - SSE 19.6 mph - N/A   Unknown
4:00 PM 71.6 °F 68.0 °F 88% 30.09 in - SSE 19.6 mph - N/A   Unknown
4:30 PM 71.6 °F 68.0 °F 88% 30.09 in - SSE 20.7 mph - N/A   Unknown
5:00 PM 71.6 °F 68.0 °F 88% 30.09 in - ESE 21.9 mph - N/A   Unknown
5:30 PM 71.6 °F 66.2 °F 83% 30.12 in - ESE 21.9 mph - N/A   Unknown
6:00 PM 71 °F 67 °F 82% 30.13 in - ESE 23.0 mph - -  
6:00 PM 71.6 °F 66.2 °F 83% 30.12 in - ESE 23.0 mph - N/A   Unknown
6:30 PM 71.6 °F 66.2 °F 83% 30.12 in - ESE 19.6 mph - N/A   Unknown
7:00 PM 69.8 °F 66.2 °F 88% 30.12 in - ESE 19.6 mph - N/A   Unknown
7:30 PM 71.6 °F 68.0 °F 88% 30.12 in - ESE 19.6 mph - N/A   Unknown
8:00 PM 71.6 °F 66.2 °F 83% 30.15 in - ESE 19.6 mph - N/A   Unknown
8:30 PM 71.6 °F 66.2 °F 83% 30.12 in - ESE 20.7 mph - N/A   Unknown
9:00 PM 72 °F 67 °F 79% 30.15 in - ESE 20.7 mph - -  
9:00 PM 71.6 °F 66.2 °F 83% 30.15 in - ESE 20.7 mph - N/A   Unknown
9:30 PM 71.6 °F 66.2 °F 83% 30.15 in - ESE 21.9 mph - N/A   Unknown
10:00 PM 71.6 °F 68.0 °F 88% 30.12 in - ESE 21.9 mph - N/A   Unknown
10:30 PM 71.6 °F 68.0 °F 88% 30.12 in - ESE 20.7 mph - N/A   Unknown
10:48 PM 71.6 °F 66.2 °F 83% 30.12 in - ESE 25.3 mph 36.8 mph N/A   Unknown
11:00 PM 69.8 °F 66.2 °F 88% 30.12 in - ESE 26.5 mph - N/A   Unknown
11:06 PM 69.8 °F 66.2 °F 88% 30.12 in - ESE 23.0 mph 36.8 mph N/A   Unknown
11:30 PM 71.6 °F 66.2 °F 83% 30.12 in - East 26.5 mph - N/A   Unknown